Location: UBC Liquid-Mirror Observatory
(49.2876°N, 122.5728°W)
Time: 08:22:13
(UTC-07:00)

Daily predictions for brighter satellites

Satellite Brightness Start Highest point End
(mag) Time Altitude Azimuth Time Altitude Azimuth Time Altitude Azimuth
Cosmos 1707 3.9 19:21:00 10° NNW 19:24:45 48° W 19:28:28 10° S
Cosmos 1464 Rocket 4.2 19:19:18 10° SSE 19:25:14 49° E 19:31:09 10° NNE
Cosmos 2297 4.4 19:20:53 10° NW 19:26:29 61° WSW 19:32:02 10° SSE
SKYMED 2 3.5 19:22:07 10° NNE 19:26:30 78° ESE 19:30:50 10° S
CZ-4C R/B 2.5 19:21:03 10° SW 19:26:31 79° NW 19:32:48 10° NE
Cosmos 1607 4.2 19:21:07 10° SW 19:27:17 75° NW 19:33:29 10° NE
Intercosmos 25 Rocket 4.3 19:20:54 10° S 19:27:41 82° W 19:31:52 10° N
ALOS 3.3 19:24:07 10° ESE 19:28:01 27° ENE 19:31:58 10° N
Cosmos 1408 Rocket 3.7 19:24:38 10° N 19:28:56 54° ENE 19:33:11 10° SSE
ATLAS CENTAUR R/B 4.1 19:28:56 10° SSW 19:34:22 50° ESE 19:50:51 10° NE
Cosmos 1943 Rocket 3.7 19:31:23 10° N 19:35:29 20° NE 19:39:33 10° E
Cosmos 2369 Rocket 3.0 19:31:05 10° NNW 19:36:12 34° NE 19:41:20 10° ESE
Meteor 1-22 Rocket 4.0 19:32:18 10° S 19:37:36 78° E 19:42:55 10° NNE
Cosmos 2233 Rocket 4.4 19:31:30 10° SSW 19:37:48 71° WNW 19:44:09 10° N
Aureole 2 Rocket 2.9 19:35:13 10° SSW 19:39:34 79° ESE 19:43:48 10° NNE
Meteor 1-24 Rocket 4.2 19:34:20 10° NNW 19:40:00 66° W 19:45:23 10° S
Cosmos 1470 4.3 19:40:25 10° SE 19:42:50 16° E 19:45:15 10° NE
USA 215 4.0 19:39:17 10° ENE 19:45:00 31° SE 19:50:39 10° S
Meteor 1-29 4.0 19:43:02 10° NE 19:46:02 26° E 19:49:01 10° SSE
SAR-Lupe-1 4.5 19:43:01 10° S 19:46:33 66° WSW 19:50:07 10° NNW
Cosmos 1603 4.3 19:41:47 10° S 19:46:54 35° ESE 19:52:04 10° NE
FREGAT/IRIS 2.7 19:45:11 10° SSE 19:48:16 86° WSW 19:51:23 10° NNW
NOAA 12 4.3 19:45:13 10° SSE 19:50:29 81° WSW 19:55:50 10° NNW
CZ-4B DEB 3.7 19:47:54 10° SE 19:50:49 30° ENE 19:53:44 10° N
SJ-6B 3.3 19:46:55 10° S 19:50:54 68° WSW 19:55:00 10° NNW
Cosmos 1674 3.5 19:49:03 10° N 19:52:37 33° ENE 19:56:08 10° SE
Helios 1A 2.9 19:51:51 10° SSE 19:56:02 70° ENE 20:00:15 10° N
Resurs 1-3 3.6 19:51:47 10° SSE 19:56:06 62° ENE 20:00:27 10° N
ERS-1 Rocket 4.4 19:55:23 14° E 19:57:51 20° ENE 20:01:28 10° NNE
Cosmos 1743 Rocket 3.7 19:53:49 10° N 19:58:13 53° ENE 20:02:32 10° SSE
Resurs 01 Rocket 1.6 19:55:10 10° SSE 19:59:37 84° ENE 20:04:06 10° NNW
In-Cosmos 22 4.4 19:54:03 10° NNW 19:59:52 84° W 20:05:38 10° S
Cosmos 2333 Rocket 3.8 19:56:51 10° WSW 20:02:13 38° NW 20:07:37 10° NNE
Cosmos 1346 2.9 20:00:17 10° N 20:03:16 67° ENE 20:06:13 10° SSE
ATLAS 3B R/B 4.0 19:56:16 10° WSW 20:03:23 42° NNW 20:10:14 10° NE
Cosmos 1758 3.3 19:59:54 10° S 20:03:57 65° E 20:08:02 10° NNE
Cosmos 1452 Rocket 4.2 20:04:35 10° NNW 20:09:45 57° WSW 20:14:52 10° S
COSMO-SKYMED 1 4.3 20:10:27 10° N 20:14:27 37° WNW 20:18:26 10° SW
FengYun 1-2 T 4.2 20:09:12 10° SSE 20:14:43 88° ENE 20:20:14 10° NNW
GP-B 3.7 20:17:00 10° NNE 20:21:06 35° E 20:23:17 22° SE
ATLAS 5 CENTAUR R/B 1.8 20:16:34 10° SW 20:21:25 78° SE 20:26:45 10° NE
Cosmos 2237 Rocket 4.0 20:17:34 10° WSW 20:22:39 33° NW 20:27:44 10° NNE
NOSS 3-2 (A) 3.7 20:17:44 10° SW 20:23:56 80° NW 20:30:50 10° NE
Nadezhda 4 Rocket 4.0 20:20:41 10° N 20:27:01 88° W 20:33:15 10° S
Cosmos 1328 4.2 20:23:53 10° N 20:27:39 40° ENE 20:28:46 32° ESE
ASTEX 1 3.3 20:23:32 10° NNE 20:28:25 61° E 20:33:15 10° S
Helios 1B rocket 2.4 20:24:19 10° NNE 20:28:27 87° WNW 20:32:34 10° SSW
Cosmos 1544 3.0 20:26:49 10° S 20:30:33 87° E 20:34:19 10° N
Cosmos 1420 Rocket 4.4 20:25:32 10° NNW 20:30:47 66° WSW 20:36:03 10° S
Cosmos 468 4.4 20:26:09 10° SSW 20:31:22 79° ESE 20:36:38 10° NNE
Cosmos 1331 Rocket 4.5 20:27:36 10° NNW 20:32:41 43° ENE 20:34:49 29° ESE
Cosmos 1939 Rocket 3.9 20:33:52 27° ENE 20:33:52 27° ENE 20:37:13 10° N
ERBS 3.1 20:31:13 10° NW 20:34:35 42° NNE 20:35:22 36° ENE
Cosmos 1092 Rocket 3.9 20:28:53 10° N 20:35:09 81° E 20:41:19 10° SSE
SL-14 R/B 4.1 20:31:50 10° N 20:35:28 32° ENE 20:35:30 32° ENE
Cosmos 839 Rocket 4.3 20:28:06 10° NW 20:36:19 83° NE 20:40:52 22° SE
Cosmos 1655 Rocket 4.2 20:31:41 10° N 20:37:41 47° ENE 20:40:56 26° SE
CZ-2D R/B 3.2 20:35:31 16° SSE 20:38:38 86° WSW 20:42:33 10° NNW
Cosmos 1805 Rocket 4.3 20:36:45 10° N 20:40:47 32° ENE 20:40:53 32° ENE
H-2A R/B 3.6 20:43:11 22° NE 20:43:11 22° NE 20:46:19 10° N
SL-16 R/B 3.4 20:38:00 10° SW 20:43:25 44° NW 20:48:53 10° NNE
Cosmos 2026 Rocket 3.9 20:42:16 10° N 20:48:18 60° ENE 20:51:47 26° SSE
Cosmos-2242 4.0 20:46:35 10° SSW 20:50:49 49° WNW 20:55:07 10° N
ISS -0.9 20:48:58 10° SSW 20:49:32 13° SSW 20:49:32 13° SSW
SPOT 5 4.0 20:53:01 23° NE 20:53:01 23° NE 20:55:48 10° N
H-2A R/B 3.2 20:49:41 17° S 20:52:34 61° WSW 20:56:26 10° NNW
Cosmos 1633 Rocket 4.4 20:50:12 10° N 20:52:59 25° NE 20:52:59 25° NE
Cosmos 1048 Rocket 3.9 20:48:45 10° SSW 20:54:02 82° ESE 20:59:17 10° NNE
Cosmos 2151 2.8 20:50:29 10° N 20:54:44 78° E 20:55:56 46° SSE
Cosmos 1269 Rocket 4.0 20:49:38 10° SSW 20:54:55 87° WNW 21:00:15 10° NNE
CENTAUR R/B 2.7 20:49:08 10° SSW 20:54:59 48° ESE 21:01:35 10° NE
Cosmos 1634 Rocket 3.9 20:48:56 10° S 20:55:07 68° E 21:01:16 10° NNE
Cosmos 2221 3.9 20:58:19 24° NE 20:58:19 24° NE 21:00:21 10° NNE
Cosmos 2058 2.9 20:52:28 10° N 20:56:32 55° ENE 20:56:32 55° ENE
Cosmos 1953 4.0 20:53:36 10° SW 20:57:14 34° WNW 21:00:55 10° N
YAOGAN 11 4.1 20:58:36 54° E 20:58:53 56° ENE 21:03:06 10° N
FENGYUN 3A 4.3 20:53:53 10° S 20:59:09 55° W 21:04:29 10° NNW
Envisat 3.1 20:59:46 46° ESE 21:00:43 53° ENE 21:05:41 10° N
NOSS 3-2 (C) 4.0 20:56:59 10° WSW 21:03:10 62° NW 21:10:02 10° NE
USA 186 3.7 21:04:53 21° NW 21:04:53 21° NW 21:05:58 10° NNW
ALOS 3.4 21:00:52 10° S 21:05:18 42° W 21:09:45 10° NNW
Gbstr 26 Del rocket 4.4 21:05:27 10° SSW 21:08:14 30° S 21:08:14 30° S
Cosmos 2195 Rocket 4.5 21:03:55 10° N 21:10:16 87° W 21:14:40 21° S
Cosmos 1842 Rocket 4.0 21:06:51 10° SSW 21:11:07 60° WNW 21:15:27 10° N
H-2A R/B 3.9 21:12:41 15° NE 21:12:41 15° NE 21:14:49 10° NNE
CZ-4C R/B 4.1 21:11:00 10° W 21:16:03 29° NNW 21:21:44 10° NE
Cosmos 158 Rocket 3.6 21:13:20 10° SSW 21:18:13 81° ESE 21:23:08 10° NNE
Cosmos 1470 3.7 21:14:50 10° SSW 21:18:35 46° WNW 21:22:21 10° N
Cosmos 1666 Rocket 4.1 21:15:26 10° N 21:18:53 46° NNE 21:18:53 46° NNE
Cosmos 1943 Rocket 2.0 21:14:30 10° NNW 21:20:11 80° ENE 21:21:11 61° SE
Cosmos 2369 Rocket 2.9 21:15:01 10° NW 21:20:28 51° WSW 21:23:24 26° S
Cosmos 1733 4.0 21:18:34 19° SSW 21:21:08 52° WNW 21:24:55 10° N
Meteor 2-20 Rocket 4.5 21:15:51 10° N 21:21:56 56° ENE 21:22:32 53° E
Meteor 2-20 4.4 21:15:47 10° N 21:21:57 68° ENE 21:23:12 55° SE
Cosmos 1943 3.0 21:19:41 10° SSW 21:25:19 84° ESE 21:30:59 10° NNE
USA 215 3.1 21:24:24 25° ENE 21:28:34 87° SSE 21:35:07 10° WSW
SeaSat 1 3.7 21:25:10 10° NNE 21:35:12 - SSW 21:27:30 28° NE
MetOp-B 4.4 21:32:03 53° NE 21:32:03 53° NE 21:36:54 10° N
SPOT 1/Viking Rocket 4.5 21:35:37 35° NE 21:35:37 35° NE 21:39:17 10° N
Aureole 3 4.1 21:28:39 10° N 21:35:14 76° ENE 21:35:32 74° ESE
ERS-1 Rocket 3.1 21:35:23 60° SSW 21:36:09 71° WSW 21:41:11 10° NNW
Meteor 2-1 Rocket 4.2 21:48:44 67° SSW 21:49:34 85° W 21:55:31 10° N
Terra 3.9 21:53:42 17° NNE 21:53:42 17° NNE 21:55:13 10° N
Sich 1 4.2 21:51:38 10° NNW 21:54:35 41° NNW 21:54:35 41° NNW
Cosmos 2180 Rocket 4.3 21:57:30 78° SSW 21:57:56 86° W 22:04:08 10° N
ATLAS 5 CENTAUR R/B 3.7 22:02:14 10° W 22:06:41 30° NNW 22:11:00 12° NNE
BREEZE-M DEB (TANK) 4.4 22:07:01 10° W 22:12:56 33° WSW 22:12:56 33° WSW
H-2A R/B 3.8 22:20:20 32° NW 22:20:20 32° NW 22:22:59 10° NNW
Lacrosse 4 Rocket 4.3 22:23:39 10° N 22:24:25 11° N 22:24:25 11° N
Cosmos 1656 Rocket 4.4 22:20:50 10° NNW 22:24:48 48° NW 22:24:48 48° NW
ARGOS 4.0 22:28:53 46° NNW 22:28:53 46° NNW 22:32:39 10° NNW
Cosmos 2266 Rocket 4.3 22:24:54 10° NNW 22:30:36 64° WNW 22:30:36 64° WNW
CENTAUR R/B 3.3 22:39:28 10° WSW 22:45:40 51° NW 22:52:43 10° NE
H-2A R/B 3.8 22:53:20 27° NNW 22:53:20 27° NNW 22:55:38 10° NNW
Cosmos 1980 Rocket 4.2 22:47:35 10° N 22:50:27 20° NNE 22:50:27 20° NNE
Cosmos 1943 Rocket 4.3 22:59:29 10° WNW 23:02:43 18° W 23:02:43 18° W
CZ-4C R/B 4.4 23:01:39 10° NW 23:06:40 24° N 23:08:56 20° NE
USA 215 3.9 23:11:48 51° NNW 23:11:48 51° NNW 23:17:37 10° W
Cosmos 2322 Rocket 4.5 23:42:10 10° N 23:44:21 18° N 23:44:21 18° N
ATLAS 3B R/B 4.1 23:42:38 10° NW 23:48:32 32° NNE 23:48:32 32° NNE
ATLAS 5 CENTAUR R/B 4.5 23:49:19 10° NW 23:52:33 19° N 23:52:33 19° N
